Weather History for KPYM - August, 2014

Change the Weather History Date:

Friday, August 15, 2014

  Actual Average Record
Temperature  
Mean Temperature 62 °F -  
Max Temperature 73 °F 81 °F 95 °F (1988)
Min Temperature 52 °F 60 °F 49 °F (1983)
Degree Days  
Heating Degree Days 2    
Growing Degree Days 12 (Base 50)    
Moisture  
Dew Point 53 °F    
Average Humidity 70    
Maximum Humidity 90    
Minimum Humidity 41    
Precipitation  
Precipitation 0.00 in - - ()
Sea Level Pressure  
Sea Level Pressure 29.88 in    
Wind  
Wind Speed 5 mph (SW)    
Max Wind Speed 14 mph    
Max Gust Speed 23 mph    
Visibility 10 miles    
Events      
Averages and records for this station are not official NWS values.
T = Trace of Precipitation, MM = Missing Value Source: NWS Daily Summary

Daily Weather History Graph

Daily Weather History Graph

Search for Another Location

Airport or City:

Trip Planner

Search our weather history database for the weather conditions in past years. The results will help you decide how hot, cold, wet, or windy it might be!

Date:

Astronomy

Aug. 15, 2014 Rise Set
Actual Time 5:50 AM EDT 7:43 PM EDT
Civil Twilight 5:20 AM EDT 8:13 PM EDT
Nautical Twilight 4:44 AM EDT 8:49 PM EDT
Astronomical Twilight 4:04 AM EDT 9:28 PM EDT
Moon 10:36 PM EDT (8/15) 11:36 AM EDT (8/15)
Length of Visible Light 14h 52m
Length of Day
13h 52m
Waning Gibbous, 69% of the Moon is Illuminated
Aug 15
Waning Gibbous
Aug 17
Last Quarter
Aug 25
New
Sep 2
First Quarter
Sep 8
Full

Hourly Weather History & Observations

Time (EDT) Temp. Dew Point Humidity Pressure Visibility Wind Dir Wind Speed Gust Speed Precip Events Conditions
12:52 AM 52.0 °F 48.9 °F 89% 29.90 in 10.0 mi Calm Calm - N/A   Mostly Cloudy
1:52 AM 53.1 °F 50.0 °F 89% 29.88 in 10.0 mi Calm Calm - N/A   Clear
2:52 AM 54.0 °F 50.0 °F 86% 29.87 in 10.0 mi Calm Calm - N/A   Mostly Cloudy
3:52 AM 54.0 °F 51.1 °F 90% 29.85 in 10.0 mi Calm Calm - N/A   Partly Cloudy
4:39 AM 61.0 °F 57.0 °F 87% 29.84 in 10.0 mi SSE 3.5 mph - N/A   Mostly Cloudy
4:52 AM 62.1 °F 57.9 °F 86% 29.84 in 10.0 mi Variable 3.5 mph - N/A   Overcast
5:26 AM 63.0 °F 57.9 °F 84% 29.84 in 10.0 mi SSE 4.6 mph - N/A   Scattered Clouds
5:52 AM 62.1 °F 57.9 °F 86% 29.84 in 10.0 mi SSE 3.5 mph - N/A   Clear
6:52 AM 64.0 °F 60.1 °F 87% 29.86 in 10.0 mi SSW 5.8 mph - N/A   Clear
7:52 AM 66.0 °F 62.1 °F 87% 29.86 in 10.0 mi SW 9.2 mph - N/A   Partly Cloudy
8:06 AM 66.9 °F 62.1 °F 84% 29.86 in 10.0 mi WSW 11.5 mph - N/A   Partly Cloudy
8:52 AM 68.0 °F 59.0 °F 73% 29.87 in 10.0 mi West 12.7 mph - N/A   Partly Cloudy
10:52 AM 71.1 °F 54.0 °F 55% 29.88 in 10.0 mi WSW 12.7 mph 23.0 mph N/A   Clear
11:52 AM 72.0 °F 51.1 °F 48% 29.88 in 10.0 mi West 13.8 mph - N/A   Clear
12:52 PM 73.0 °F 51.1 °F 46% 29.87 in 10.0 mi West 12.7 mph 20.7 mph N/A   Scattered Clouds
1:52 PM 73.9 °F 48.9 °F 41% 29.87 in 10.0 mi SW 11.5 mph - N/A   Partly Cloudy
2:52 PM 73.0 °F 50.0 °F 44% 29.86 in 10.0 mi WSW 12.7 mph - N/A   Mostly Cloudy
3:52 PM 72.0 °F 50.0 °F 46% 29.87 in 10.0 mi West 11.5 mph - N/A   Mostly Cloudy
4:52 PM 70.0 °F 51.1 °F 51% 29.87 in 10.0 mi WNW 10.4 mph - N/A   Overcast
5:52 PM 68.0 °F 51.1 °F 55% 29.89 in 10.0 mi West 8.1 mph - N/A   Overcast
6:52 PM 66.0 °F 50.0 °F 56% 29.90 in 10.0 mi WNW 10.4 mph - N/A   Overcast
7:52 PM 63.0 °F 51.1 °F 65% 29.91 in 10.0 mi SW 3.5 mph - N/A   Clear
8:52 PM 61.0 °F 51.1 °F 70% 29.94 in 10.0 mi SW 4.6 mph - N/A   Clear
9:52 PM 59.0 °F 51.1 °F 75% 29.94 in 10.0 mi SW 4.6 mph - N/A   Clear
10:52 PM 59.0 °F 51.1 °F 75% 29.95 in 10.0 mi SSW 5.8 mph - N/A   Clear
11:52 PM 60.1 °F 51.1 °F 72% 29.96 in 10.0 mi SSW 5.8 mph - N/A   Overcast